Hourly Data Report for October 08, 2014

All times are specified in Local Standard Time (LST). Add 1 hour to adjust for Daylight Saving Time where and when it is observed.

ST LEONARD CS
NEW BRUNSWICK

47°09'28.050" N
67°49'55.014" W
245.00 m
810I001
71019
WIY

Download Data

Hourly Data (October 2014)
Hourly Data Report for October 8, 2014
Temp Definition
°C
Dew Point Temp Definition
°C
Rel Hum Definition
%
Wind Dir Definition
10's deg

Wind Spd Definition
km/h
Visibility Definition
km
Stn Press Definition
kPa
Hmdx Definition


Wind Chill Definition


Weather Definition


TIME
00:00 10.9 9.4 90 15 2   98.72     LegendNANA
01:00 11.2 9.3 88 16 1   98.66     LegendNANA
02:00 11.3 9.8 90 0 1   98.65     LegendNANA
03:00 11.7 10.4 92 17 2   98.57     LegendNANA
04:00 12.0 10.8 93 16 1   98.52     LegendNANA
05:00 12.4 11.3 93 15 2   98.46     LegendNANA
06:00 12.7 11.7 94 15 3   98.37     LegendNANA
07:00 12.7 11.7 94 13 1   98.29     LegendNANA
08:00 12.5 11.8 96 13 3   98.23     LegendNANA
09:00 12.5 11.8 96 14 2   98.15     LegendNANA
10:00 12.7 12.0 96 13 5   97.98     LegendNANA
11:00 12.5 11.9 96 14 3   97.88     LegendNANA
12:00 12.8 12.1 96 12 3   97.67     LegendNANA
13:00 13.4 12.4 94 13 4   97.50     LegendNANA
14:00 13.1 12.0 93 13 6   97.37     LegendNANA
15:00 12.8 12.0 95 13 2   97.28     LegendNANA
16:00 13.5 12.3 93 17 4   97.21     LegendNANA
17:00 12.4 11.0 91 19 3   97.18     LegendNANA
18:00 11.7 10.7 93 18 1   97.19     LegendNANA
19:00 11.6 10.6 94 0 1   97.25     LegendNANA
20:00 10.9 10.0 94 17 2   97.29     LegendNANA
21:00 10.7 9.0 89 22 2   97.37     LegendNANA
22:00 10.2 7.8 85 21 1   97.40     LegendNANA
23:00 9.6 7.6 87 21 2   97.41     LegendNANA

Notes on Data Quality.

Legend

  • E = Estimated
  • M = Missing
  • NA = Not Available
  • ‡ = Partner data that is not subject to review by the National Climate Archives
Date modified: